Time,TemperatureF,DewpointF,PressureIn,WindDirection,WindDirectionDegrees,WindSpeedMPH,WindSpeedGustMPH,Humidity,HourlyPrecipIn,Conditions,Clouds,dailyrainin,SoftwareType,DateUTC
2015-07-31 00:04:00,63.0,62.4,30.07,WSW,247,0.0,0.0,98,0.00,,,0.00,meteobridge,2015-07-31 04:04:00,
2015-07-31 00:09:00,62.8,62.2,30.08,WSW,247,0.0,0.0,98,0.00,,,0.00,meteobridge,2015-07-31 04:09:00,
2015-07-31 00:19:00,62.8,62.2,30.08,West,270,0.0,0.0,98,0.00,,,0.00,meteobridge,2015-07-31 04:19:00,
2015-07-31 00:25:00,62.6,62.1,30.08,WSW,247,0.0,0.0,98,0.00,,,0.00,meteobridge,2015-07-31 04:25:00,
2015-07-31 00:30:00,62.6,62.1,30.08,SW,225,2.0,3.1,98,0.00,,,0.00,meteobridge,2015-07-31 04:30:00,
2015-07-31 00:35:00,62.6,62.1,30.08,SW,225,1.1,1.1,98,0.00,,,0.00,meteobridge,2015-07-31 04:35:00,
2015-07-31 00:40:00,62.6,62.1,30.08,SSW,202,0.0,0.0,98,0.00,,,0.00,meteobridge,2015-07-31 04:40:00,
2015-07-31 00:46:00,62.8,62.2,30.08,SSW,202,0.0,0.0,98,0.00,,,0.00,meteobridge,2015-07-31 04:46:00,
2015-07-31 00:51:00,62.1,61.5,30.08,SSW,202,0.0,0.0,98,0.00,,,0.00,meteobridge,2015-07-31 04:51:00,
2015-07-31 00:56:00,62.1,61.5,30.08,SW,225,0.0,0.0,98,0.00,,,0.00,meteobridge,2015-07-31 04:56:00,
2015-07-31 01:02:00,62.1,61.5,30.08,SW,225,0.0,2.7,98,0.00,,,0.00,meteobridge,2015-07-31 05:02:00,
2015-07-31 01:07:00,61.9,61.3,30.08,West,270,0.0,0.0,98,0.00,,,0.00,meteobridge,2015-07-31 05:07:00,
2015-07-31 01:12:00,61.9,61.3,30.08,WSW,247,0.0,0.0,98,0.00,,,0.00,meteobridge,2015-07-31 05:12:00,
2015-07-31 01:18:00,62.1,61.5,30.08,West,270,1.6,2.7,98,0.00,,,0.00,meteobridge,2015-07-31 05:18:00,
2015-07-31 01:23:00,62.1,61.5,30.09,SSW,202,0.0,1.6,98,0.00,,,0.00,meteobridge,2015-07-31 05:23:00,
2015-07-31 01:28:00,62.2,61.7,30.08,SW,225,1.1,1.1,98,0.00,,,0.00,meteobridge,2015-07-31 05:28:00,
2015-07-31 01:34:00,62.2,61.7,30.08,SW,225,1.1,2.7,98,0.00,,,0.00,meteobridge,2015-07-31 05:34:00,
2015-07-31 01:39:00,62.1,61.5,30.08,SW,225,0.0,1.6,98,0.00,,,0.00,meteobridge,2015-07-31 05:39:00,
2015-07-31 01:45:00,62.1,61.5,30.08,WSW,247,1.1,2.0,98,0.00,,,0.00,meteobridge,2015-07-31 05:45:00,
2015-07-31 01:50:00,62.1,61.5,30.08,SW,225,0.0,0.0,98,0.00,,,0.00,meteobridge,2015-07-31 05:50:00,
2015-07-31 01:56:00,62.1,61.5,30.07,West,270,0.0,2.0,98,0.00,,,0.00,meteobridge,2015-07-31 05:56:00,
2015-07-31 02:01:00,62.1,61.5,30.07,West,270,3.1,3.1,98,0.00,,,0.00,meteobridge,2015-07-31 06:01:00,
2015-07-31 02:06:00,62.6,62.1,30.07,SW,225,1.6,2.7,98,0.00,,,0.00,meteobridge,2015-07-31 06:06:00,
2015-07-31 02:11:00,62.6,62.1,30.07,West,270,1.6,2.7,98,0.00,,,0.00,meteobridge,2015-07-31 06:11:00,
2015-07-31 02:22:00,62.2,61.7,30.07,SW,225,1.1,3.6,98,0.00,,,0.00,meteobridge,2015-07-31 06:22:00,
2015-07-31 02:27:00,62.2,61.7,30.08,WSW,247,2.0,2.0,98,0.00,,,0.00,meteobridge,2015-07-31 06:27:00,
2015-07-31 02:32:00,62.6,62.1,30.07,West,270,1.6,2.7,98,0.00,,,0.00,meteobridge,2015-07-31 06:32:00,
2015-07-31 02:37:00,62.6,62.1,30.07,WSW,247,2.0,2.7,98,0.00,,,0.00,meteobridge,2015-07-31 06:37:00,
2015-07-31 02:43:00,62.2,61.7,30.07,SSW,202,1.6,1.6,98,0.00,,,0.00,meteobridge,2015-07-31 06:43:00,
2015-07-31 02:48:00,62.1,61.5,30.07,SW,225,0.0,1.6,98,0.00,,,0.00,meteobridge,2015-07-31 06:48:00,
2015-07-31 02:53:00,61.9,61.3,30.06,SSW,202,0.0,-999.0,98,-99.99,,,0.00,Acu-Link.com,2015-07-31 06:53:00,
2015-07-31 02:58:00,61.7,61.2,30.07,SW,225,0.0,1.6,98,0.00,,,0.00,meteobridge,2015-07-31 06:58:00,
2015-07-31 03:04:00,61.3,60.8,30.07,WSW,247,0.0,0.0,98,0.00,,,0.00,meteobridge,2015-07-31 07:04:00,
2015-07-31 03:09:00,61.2,60.6,30.07,SW,225,0.0,0.0,98,0.00,,,0.00,meteobridge,2015-07-31 07:09:00,
2015-07-31 03:15:00,61.2,60.6,30.06,WSW,247,0.0,0.0,98,0.00,,,0.00,meteobridge,2015-07-31 07:15:00,
2015-07-31 03:20:00,61.2,60.6,30.07,WSW,247,1.1,2.7,98,0.00,,,0.00,meteobridge,2015-07-31 07:20:00,
2015-07-31 03:25:00,61.2,60.6,30.06,WSW,247,0.0,1.1,98,0.00,,,0.00,meteobridge,2015-07-31 07:25:00,
2015-07-31 03:30:00,61.2,60.6,30.06,West,270,0.0,1.6,98,0.00,,,0.00,meteobridge,2015-07-31 07:30:00,
2015-07-31 03:35:00,61.2,60.6,30.06,West,270,0.0,1.1,98,0.00,,,0.00,meteobridge,2015-07-31 07:35:00,
2015-07-31 03:40:00,61.2,60.6,30.07,West,270,0.0,0.0,98,0.00,,,0.00,meteobridge,2015-07-31 07:40:00,
2015-07-31 03:46:00,61.3,60.8,30.07,West,270,3.1,3.1,98,0.00,,,0.00,meteobridge,2015-07-31 07:46:00,
2015-07-31 03:51:00,61.9,61.3,30.07,West,270,3.6,4.0,98,0.00,,,0.00,meteobridge,2015-07-31 07:51:00,
2015-07-31 03:56:00,61.9,61.3,30.07,West,270,2.7,3.6,98,0.00,,,0.00,meteobridge,2015-07-31 07:56:00,
2015-07-31 04:02:00,61.9,61.3,30.07,West,270,2.0,2.7,98,0.00,,,0.00,meteobridge,2015-07-31 08:02:00,
2015-07-31 04:07:00,61.9,61.3,30.06,West,270,1.6,2.7,98,0.00,,,0.00,meteobridge,2015-07-31 08:07:00,
2015-07-31 04:12:00,61.9,61.3,30.06,West,270,1.6,2.0,98,0.00,,,0.00,meteobridge,2015-07-31 08:12:00,
2015-07-31 04:17:00,61.9,61.3,30.06,West,270,2.7,3.1,98,0.00,,,0.00,meteobridge,2015-07-31 08:17:00,
2015-07-31 04:22:00,61.9,61.3,30.06,West,270,3.1,3.1,98,0.00,,,0.00,meteobridge,2015-07-31 08:22:00,
2015-07-31 04:28:00,61.9,61.3,30.06,West,270,2.0,2.7,98,0.00,,,0.00,meteobridge,2015-07-31 08:28:00,
2015-07-31 04:33:00,61.9,61.3,30.05,West,270,2.7,2.7,98,0.00,,,0.00,meteobridge,2015-07-31 08:33:00,
2015-07-31 04:38:00,61.9,61.3,30.05,West,270,2.7,3.1,98,0.00,,,0.00,meteobridge,2015-07-31 08:38:00,
2015-07-31 04:43:00,61.9,61.3,30.05,West,270,2.7,3.6,98,0.00,,,0.00,meteobridge,2015-07-31 08:43:00,
2015-07-31 04:48:00,61.9,61.3,30.05,West,270,2.7,3.1,98,0.00,,,0.00,meteobridge,2015-07-31 08:48:00,
2015-07-31 04:54:00,61.9,61.3,30.06,West,270,2.0,2.7,98,0.00,,,0.00,meteobridge,2015-07-31 08:54:00,
2015-07-31 04:59:00,61.9,61.3,30.06,West,270,0.0,1.6,98,0.00,,,0.00,meteobridge,2015-07-31 08:59:00,
2015-07-31 05:04:00,61.9,61.3,30.05,West,270,0.0,0.0,98,0.00,,,0.00,meteobridge,2015-07-31 09:04:00,
2015-07-31 05:10:00,61.9,61.3,30.05,West,270,2.7,2.7,98,0.00,,,0.00,meteobridge,2015-07-31 09:10:00,
2015-07-31 05:15:00,61.9,61.3,30.05,West,270,2.0,2.0,98,0.00,,,0.00,meteobridge,2015-07-31 09:15:00,
2015-07-31 05:20:00,61.9,61.3,30.06,West,270,2.7,3.1,98,0.00,,,0.00,meteobridge,2015-07-31 09:20:00,
2015-07-31 05:25:00,61.9,61.3,30.05,West,270,3.1,3.1,98,0.00,,,0.00,meteobridge,2015-07-31 09:25:00,
2015-07-31 05:30:00,61.7,61.2,30.05,West,270,4.0,4.0,98,0.00,,,0.00,meteobridge,2015-07-31 09:30:00,
2015-07-31 05:35:00,61.7,61.2,30.05,West,270,3.6,3.6,98,0.00,,,0.00,meteobridge,2015-07-31 09:35:00,
2015-07-31 05:41:00,61.9,61.3,30.05,West,270,3.1,3.1,98,0.00,,,0.00,meteobridge,2015-07-31 09:41:00,
2015-07-31 05:46:00,61.9,61.3,30.05,West,270,2.7,3.1,98,0.00,,,0.00,meteobridge,2015-07-31 09:46:00,
2015-07-31 05:51:00,61.9,61.3,30.05,West,270,2.7,2.7,98,0.00,,,0.00,meteobridge,2015-07-31 09:51:00,
2015-07-31 05:56:00,61.9,61.3,30.05,West,270,1.6,2.7,98,0.00,,,0.00,meteobridge,2015-07-31 09:56:00,
2015-07-31 06:02:00,61.9,61.3,30.06,West,270,2.0,2.7,98,0.00,,,0.00,meteobridge,2015-07-31 10:02:00,
2015-07-31 06:08:00,61.7,61.2,30.06,West,270,0.0,2.7,98,0.00,,,0.00,meteobridge,2015-07-31 10:08:00,
2015-07-31 06:13:00,61.3,60.8,30.06,West,270,0.0,0.0,98,0.00,,,0.00,meteobridge,2015-07-31 10:13:00,
2015-07-31 06:18:00,61.2,60.6,30.06,WSW,247,0.0,0.0,98,0.00,,,0.00,meteobridge,2015-07-31 10:18:00,
2015-07-31 06:24:00,61.2,60.6,30.06,SW,225,1.6,2.0,98,0.00,,,0.00,meteobridge,2015-07-31 10:24:00,
2015-07-31 06:29:00,61.2,60.6,30.06,West,270,1.1,1.6,98,0.00,,,0.00,meteobridge,2015-07-31 10:29:00,
2015-07-31 06:34:00,61.2,60.6,30.05,West,270,0.0,0.0,98,0.00,,,0.00,meteobridge,2015-07-31 10:34:00,
2015-07-31 06:40:00,61.2,60.6,30.06,West,270,1.1,1.1,98,0.00,,,0.00,meteobridge,2015-07-31 10:40:00,
2015-07-31 06:45:00,61.2,60.6,30.06,West,270,1.1,2.0,98,0.00,,,0.00,meteobridge,2015-07-31 10:45:00,
2015-07-31 06:50:00,61.3,60.8,30.06,West,270,2.0,2.7,98,0.00,,,0.00,meteobridge,2015-07-31 10:50:00,
2015-07-31 06:55:00,62.1,61.5,30.05,SW,225,3.1,3.1,98,0.00,,,0.00,meteobridge,2015-07-31 10:55:00,
2015-07-31 07:00:00,62.6,62.1,30.05,West,270,2.7,3.6,98,0.00,,,0.00,meteobridge,2015-07-31 11:00:00,
2015-07-31 07:05:00,63.0,62.4,30.06,West,270,3.1,3.6,98,0.00,,,0.00,meteobridge,2015-07-31 11:05:00,
2015-07-31 07:11:00,63.7,63.1,30.07,WSW,247,2.0,2.0,98,0.00,,,0.00,meteobridge,2015-07-31 11:11:00,
2015-07-31 07:16:00,64.4,63.9,30.06,West,270,3.1,3.6,98,0.00,,,0.00,meteobridge,2015-07-31 11:16:00,
2015-07-31 07:21:00,64.9,64.4,30.05,WSW,247,2.0,3.6,98,0.00,,,0.00,meteobridge,2015-07-31 11:21:00,
2015-07-31 07:27:00,65.7,65.1,30.06,WSW,247,3.1,3.6,98,0.00,,,0.00,meteobridge,2015-07-31 11:27:00,
2015-07-31 07:32:00,66.4,65.8,30.06,WSW,247,2.7,3.1,98,0.00,,,0.00,meteobridge,2015-07-31 11:32:00,
2015-07-31 07:37:00,67.1,66.2,30.06,WSW,247,1.6,2.7,97,0.00,,,0.00,meteobridge,2015-07-31 11:37:00,
2015-07-31 07:42:00,67.6,66.4,30.06,SW,225,3.1,3.6,96,0.00,,,0.00,meteobridge,2015-07-31 11:42:00,
2015-07-31 07:47:00,68.4,66.9,30.06,West,270,3.6,4.7,95,0.00,,,0.00,meteobridge,2015-07-31 11:47:00,
2015-07-31 07:52:00,69.1,67.3,30.05,West,270,3.1,4.0,94,0.00,,,0.00,meteobridge,2015-07-31 11:52:00,
2015-07-31 07:58:00,69.3,67.1,30.05,WSW,247,2.7,4.7,93,0.00,,,0.00,meteobridge,2015-07-31 11:58:00,
2015-07-31 08:03:00,70.0,67.8,30.06,West,270,3.1,4.7,93,0.00,,,0.00,meteobridge,2015-07-31 12:03:00,
2015-07-31 08:08:00,70.2,68.0,30.05,West,270,4.0,4.0,93,0.00,,,0.00,meteobridge,2015-07-31 12:08:00,
2015-07-31 08:13:00,70.3,67.8,30.06,WSW,247,4.0,4.7,92,0.00,,,0.00,meteobridge,2015-07-31 12:13:00,
2015-07-31 08:18:00,71.2,68.7,30.07,West,270,2.7,4.0,92,0.00,,,0.00,meteobridge,2015-07-31 12:18:00,
2015-07-31 08:24:00,72.0,69.3,30.06,West,270,4.0,4.0,91,0.00,,,0.00,meteobridge,2015-07-31 12:24:00,
2015-07-31 08:29:00,72.7,69.6,30.07,WSW,247,2.7,-999.0,90,-99.99,,,0.00,Acu-Link.com,2015-07-31 12:29:00,
2015-07-31 08:35:00,73.0,69.6,30.06,WNW,292,2.7,4.0,89,0.00,,,0.00,meteobridge,2015-07-31 12:35:00,
2015-07-31 08:40:00,73.8,69.6,30.05,West,270,4.0,5.1,87,0.00,,,0.00,meteobridge,2015-07-31 12:40:00,